Lapse_Rate
7.3 7.6 8.0 9.1 9.5 9.7 9.4 9.9 9.7 9.7 9.7 9.7 9.5 9.2 8.8 8.4 7.8 7.6 7.2 6.8 6.5 6.2 5.9 6.4 6.5 6.4 6.6 6.7 6.7 6.6 6.5 6.5 6.6 6.6 6.6 6.6 6.5 6.4 6.4 6.4 6.4 5.4 6.6 6.8
7.6 7.8 8.7 9.7 9.7 9.5 9.4 9.7 9.7 9.7 9.6 9.6 9.4 9.2 8.9 8.7 9.0 7.8 7.6 7.1 7.0 6.7 6.4 6.7 6.7 6.6 6.6 6.6 6.6 6.6 6.6 6.5 6.4 6.3 6.2 6.2 6.3 6.0 5.7 6.1 5.8 5.5 6.2 5.8
7.9 8.6 8.5 9.7 9.3 9.2 9.7 9.7 9.7 9.7 9.6 9.5 9.7 9.5 9.2 9.0 9.0 8.9 7.8 7.4 7.3 7.0 6.8 7.1 7.1 7.0 6.8 6.8 6.6 6.5 6.4 6.4 6.3 6.2 6.2 6.2 6.0 5.9 5.9 6.0 6.2 6.2 4.8 5.8
8.0 8.7 9.2 9.5 9.0 8.9 9.7 9.6 9.7 9.7 9.7 9.7 9.6 9.7 9.3 9.0 8.5 8.7 8.4 7.2 7.3 7.3 7.0 7.3 7.8 7.6 7.2 7.1 7.0 6.8 6.7 6.4 6.3 6.2 6.1 6.1 6.1 5.9 5.7 5.9 5.9 6.1 5.8 5.8
8.2 8.2 8.8 8.7 8.5 9.4 9.6 9.6 9.7 9.7 9.7 9.7 9.7 9.7 9.2 9.2 8.8 8.9 9.0 8.3 8.1 7.4 7.3 7.4 7.9 7.9 7.7 7.4 7.4 7.2 7.0 6.9 6.6 6.5 6.3 6.3 6.2 5.9 5.8 5.4 6.0 6.1 5.7 5.6
8.6 8.7 8.7 8.4 8.6 9.5 9.7 9.4 9.4 9.6 9.7 9.7 9.7 9.8 9.4 9.4 9.4 9.4 9.2 9.0 8.4 7.8 7.4 7.4 7.6 7.7 7.8 7.6 7.3 7.3 7.1 6.9 6.6 6.5 6.3 6.2 6.1 6.0 5.9 6.0 6.2 6.3 5.5 5.4
8.5 9.3 8.7 8.5 8.8 9.5 9.2 9.1 9.5 9.6 9.7 9.7 9.7 9.7 9.6 9.7 9.7 9.7 9.4 9.2 9.0 8.4 7.6 6.9 7.1 7.3 7.5 7.6 7.5 7.2 7.0 7.0 6.8 6.7 6.5 6.4 6.2 6.2 6.2 6.3 6.4 6.4 6.4 6.1
8.6 8.7 8.6 8.5 8.7 9.6 8.7 9.2 9.6 9.4 9.6 9.8 9.4 9.6 9.7 9.1 9.2 9.4 9.4 9.3 9.3 8.8 8.3 7.5 7.1 6.8 6.9 7.0 7.1 7.0 7.0 7.0 7.0 6.8 6.6 6.4 6.3 6.3 6.4 6.5 6.7 6.6 6.7 6.5
9.5 8.8 9.6 8.7 8.7 9.4 8.6 8.6 9.3 9.7 9.7 9.7 9.5 9.7 9.2 9.0 9.1 9.1 8.6 8.8 9.2 9.0 8.7 7.6 7.7 7.2 7.7 7.3 7.1 7.0 6.9 6.7 6.7 6.5 6.4 6.3 6.3 6.4 6.4 6.4 6.5 6.4 6.4 6.5
9.4 9.7 9.7 9.5 9.0 8.9 9.6 9.4 9.3 9.7 9.4 9.4 9.8 9.2 9.3 8.8 8.8 8.6 8.1 8.5 8.8 9.2 8.8 8.5 8.3 7.7 7.0 8.1 7.2 7.1 6.7 6.7 6.6 6.4 6.4 6.4 6.3 6.1 6.0 6.1 6.2 6.2 6.1 6.1
9.0 9.6 9.7 9.7 9.5 9.1 9.5 9.7 9.6 9.7 9.7 9.7 9.5 9.1 8.9 8.7 8.4 8.5 8.4 8.3 8.3 8.5 9.2 8.8 8.7 8.1 7.9 7.7 7.3 7.4 6.7 6.7 6.5 6.6 6.7 6.5 6.4 6.3 6.1 6.3 6.1 6.2 6.3 6.2
8.6 9.6 9.4 9.7 9.7 9.4 9.7 9.7 9.6 9.6 9.5 9.5 9.4 9.5 9.0 8.4 8.6 8.2 8.5 7.9 7.8 8.0 8.4 8.7 8.5 8.6 7.1 5.4 6.6 6.5 5.7 6.1 6.6 6.8 6.0 6.5 6.3 5.9 6.5 6.0 6.0 5.7 6.2 6.3
9.2 9.1 9.6 9.6 9.7 9.6 9.0 9.7 9.7 9.7 9.5 9.5 9.6 9.1 8.8 8.3 8.0 8.0 8.1 8.2 7.4 7.7 7.8 8.3 8.0 7.8 6.9 5.8 5.1 6.7 5.9 5.5 5.4 6.3 5.0 5.6 6.6 6.3 6.2 6.5 6.8 6.2 6.3 6.3
9.6 9.5 9.1 9.7 9.6 9.7 9.6 9.6 9.7 9.7 9.7 9.6 9.5 9.4 8.8 8.9 8.3 7.7 8.0 8.0 8.2 7.1 7.7 7.7 7.7 7.3 6.0 5.0 6.0 6.3 6.6 6.8 5.6 6.2 6.1 6.2 6.4 5.9 6.0 6.3 6.2 6.0 6.0 6.2
9.5 9.6 9.6 9.2 9.5 9.7 9.7 9.7 9.6 9.7 9.7 9.7 9.6 9.5 9.3 8.6 8.0 8.0 8.5 8.4 8.2 7.9 7.4 7.5 6.7 6.0 6.5 7.3 6.6 7.0 6.9 6.8 6.6 6.5 6.4 5.9 5.5 6.6 6.6 6.1 6.2 6.2 6.3 6.5
9.5 9.0 9.5 9.6 9.3 9.5 9.8 9.7 9.6 9.7 9.7 9.7 9.6 9.5 8.9 8.7 8.5 8.4 8.5 8.4 8.0 8.2 7.7 6.7 7.1 6.6 6.5 7.0 5.9 6.5 6.5 6.9 6.9 6.6 6.5 6.0 6.4 5.8 6.1 6.5 6.7 6.8 6.7 6.9
9.1 9.1 9.1 8.6 9.0 9.6 9.6 9.7 9.7 9.7 9.7 9.7 9.7 9.0 8.3 8.2 7.9 7.7 8.1 8.1 7.7 7.1 7.3 6.7 6.2 6.8 6.8 6.2 6.7 6.8 6.7 6.6 6.4 6.6 6.5 6.4 6.4 6.6 6.8 7.0 6.8 6.9 7.0 6.9
8.9 8.8 8.9 9.1 9.3 9.5 9.2 9.7 9.7 9.8 10.0 9.9 9.7 8.8 8.2 8.1 8.4 8.3 8.8 8.1 7.3 6.9 7.0 7.3 6.9 6.7 6.7 6.8 6.5 6.5 6.3 6.2 6.3 6.4 6.7 6.8 6.9 7.0 6.9 6.9 6.9 6.9 6.7 6.6
9.5 8.8 8.9 9.5 9.5 9.4 9.5 9.6 9.7 9.7 9.7 9.7 9.2 8.8 8.5 8.3 8.7 8.3 8.3 8.0 7.6 7.1 6.9 6.8 6.8 6.8 6.8 6.6 6.4 6.3 6.3 6.4 6.6 6.7 6.7 6.8 6.9 6.9 6.8 6.8 6.6 6.5 6.4 6.5
9.6 9.2 9.0 9.1 9.4 9.8 9.6 9.7 9.4 9.3 9.3 9.5 9.4 8.6 8.3 8.7 8.3 6.8 7.4 7.2 7.0 6.8 6.5 6.4 6.3 6.3 6.2 6.3 6.3 6.4 6.4 6.5 6.8 6.9 6.9 6.8 6.9 6.7 6.6 6.6 6.4 6.3 6.5 6.7
9.0 9.1 9.2 9.0 9.5 9.3 9.2 9.4 9.5 9.5 9.3 9.2 8.9 8.5 7.9 7.6 7.7 7.5 7.2 6.8 6.7 6.5 6.5 6.3 6.2 6.2 6.3 6.4 6.5 6.6 6.6 6.7 6.7 6.8 6.8 6.6 6.5 6.5 6.4 6.2 6.2 6.4 6.7 6.5
8.6 9.0 9.3 9.5 9.5 9.5 9.2 8.8 8.9 9.0 9.1 8.8 8.5 7.9 7.8 7.5 7.5 7.5 7.3 7.0 6.7 6.6 6.5 6.4 6.5 6.5 6.4 6.6 6.5 6.4 6.5 6.6 6.6 6.6 6.6 6.5 6.4 6.4 6.4 6.3 6.6 6.7 6.7 6.2
9.1 8.8 9.0 9.3 9.2 9.4 9.0 8.5 8.4 8.2 8.6 8.6 8.2 7.5 7.6 7.6 7.3 7.2 7.1 7.1 6.9 6.8 6.7 6.5 6.4 6.3 6.3 6.3 6.3 6.2 6.3 6.6 6.6 6.7 6.6 6.4 6.3 6.5 6.8 6.8 6.7 6.7 6.5 6.2
9.3 9.2 9.2 9.2 8.5 8.4 8.5 8.1 8.0 8.0 8.4 8.2 7.7 7.4 7.4 7.0 7.0 7.2 7.2 7.1 7.0 7.0 6.6 6.5 6.4 6.3 6.1 6.2 6.3 6.3 6.4 6.4 6.6 6.6 6.6 6.6 6.8 6.8 6.7 6.7 6.7 6.7 6.3 6.2
9.2 7.9 8.6 8.3 7.8 7.8 8.0 7.7 7.6 8.2 7.7 7.5 7.6 7.5 6.7 6.6 6.9 7.0 7.3 7.1 6.7 6.3 6.2 6.2 6.2 6.4 6.4 6.6 6.4 6.6 6.6 6.5 6.6 6.6 6.7 6.8 6.8 6.7 6.6 6.6 6.5 6.4 6.0 6.0
8.5 9.0 8.1 7.7 7.1 8.2 7.6 7.7 8.0 7.8 7.7 7.4 7.0 7.1 6.9 6.9 6.8 6.7 6.9 6.4 6.2 6.1 6.2 6.2 6.3 6.6 6.6 6.5 6.5 6.6 6.6 6.6 6.8 6.9 6.9 6.8 6.8 6.8 6.7 6.5 6.1 6.0 5.8 5.7
Wind_Speed
15 11 14 17 16 11 13 9 11 13 13 11 22 18 16 20 19 18 16 15 16 16 16 16 16 14 15 13 12 10 8 7 6 5 6 6 5 4 3 7 11 5 8 5
15 15 18 16 10 2 10 9 13 12 8 11 18 19 17 14 19 20 19 17 17 17 17 16 15 15 15 14 13 12 10 8 7 6 5 4 0 3 3 7 18 8 11 3
18 17 16 16 3 7 9 11 11 12 9 10 11 17 19 16 13 19 20 19 17 18 18 17 16 15 15 15 14 13 12 11 9 9 5 4 2 4 5 6 7 16 6 15
17 19 16 8 9 10 13 11 5 9 13 11 13 8 17 18 15 19 19 20 19 19 17 16 17 16 15 15 15 14 13 11 10 10 7 7 5 4 5 5 6 11 17 13
18 17 9 10 13 16 14 8 2 6 9 12 15 8 16 18 17 15 18 21 20 20 19 19 19 17 16 15 15 14 14 13 11 11 9 7 6 6 6 8 13 8 6 14
18 16 11 15 14 14 12 2 5 8 11 12 14 9 16 16 19 18 19 20 19 21 20 19 17 17 15 15 15 15 15 13 12 11 12 10 6 5 3 3 2 4 2 4
18 19 16 13 15 17 9 8 7 8 8 11 16 8 10 9 17 8 18 19 19 19 20 20 20 17 16 17 16 15 17 15 14 13 12 12 10 7 6 4 5 4 3 2
15 14 14 16 20 15 11 15 11 4 6 10 9 5 3 16 11 3 4 13 20 19 19 22 23 21 19 18 16 16 18 16 15 15 14 11 10 7 7 7 7 4 0 1
16 19 20 19 16 12 14 14 19 15 16 8 11 8 10 8 4 8 3 7 12 21 19 19 21 20 19 16 16 15 17 16 15 15 12 12 10 10 8 4 5 4 2 2
17 12 20 21 15 20 18 14 12 7 11 8 7 11 8 12 8 8 0 8 9 12 18 18 18 19 18 17 15 15 16 16 15 15 13 12 12 10 7 5 5 2 2 2
22 18 14 20 17 19 16 12 10 13 9 7 4 7 12 10 9 6 3 2 7 9 13 15 16 19 17 16 18 19 21 21 16 12 11 11 12 10 7 6 2 2 2 2
24 12 14 20 17 15 15 16 14 10 8 9 5 10 14 9 8 4 5 7 7 12 8 4 6 7 14 18 13 15 9 16 15 16 12 11 16 8 7 3 1 5 4 4
20 16 14 17 19 16 17 18 19 14 12 11 9 9 14 9 9 7 5 5 3 7 10 10 16 24 10 5 31 14 14 8 7 10 6 11 5 6 5 4 5 4 4 6
14 19 17 14 16 18 21 21 20 18 12 14 11 14 15 13 13 10 6 3 3 8 6 17 11 17 14 25 3 11 14 10 8 6 9 15 14 9 4 6 4 5 6 8
17 16 19 23 22 17 18 21 20 18 18 15 4 4 12 11 10 7 6 4 5 4 8 5 11 14 3 8 13 12 12 9 11 13 11 7 5 6 6 6 7 8 9 10
16 14 16 22 22 23 20 23 21 23 22 13 14 11 16 13 10 10 7 4 3 4 8 10 14 11 13 11 7 9 10 9 9 8 6 3 1 5 6 6 7 9 10 10
15 14 13 18 22 21 20 15 21 19 14 16 14 13 16 13 10 7 6 6 3 4 9 11 17 10 9 7 11 11 8 7 8 7 6 5 4 6 7 8 9 10 11 10
15 13 12 14 15 23 17 13 16 13 15 16 16 17 14 13 11 8 5 6 9 11 10 10 12 11 13 11 9 7 7 7 5 5 6 7 8 8 8 9 9 9 9 11
20 14 13 12 16 16 24 18 14 14 13 13 21 18 17 16 14 10 9 12 14 15 12 12 11 12 11 10 8 6 6 6 5 8 8 9 9 9 10 10 11 11 10 10
22 18 12 12 17 20 15 15 12 11 10 13 19 15 17 13 6 9 13 15 14 13 10 10 11 10 8 7 5 5 6 6 8 8 8 9 9 10 10 11 11 9 10 11
9 8 18 14 13 15 3 7 9 14 6 14 16 13 14 8 5 16 14 14 13 10 10 9 9 7 7 6 6 6 6 8 8 9 10 10 10 11 11 10 10 11 10 11
11 10 11 11 15 18 11 14 14 8 11 12 13 13 19 19 18 17 16 14 13 11 9 8 7 6 7 9 7 6 7 7 8 9 10 10 11 10 9 11 10 10 9 11
17 14 12 2 3 10 15 18 11 11 11 10 11 18 19 18 17 16 13 12 11 10 6 6 6 7 10 8 7 8 7 8 9 10 10 9 12 12 9 9 11 7 9 8
14 21 12 9 9 14 13 14 13 11 13 11 18 16 17 18 17 15 12 10 9 9 7 7 6 5 3 4 6 6 7 8 10 11 11 11 11 10 10 9 8 8 9 8
13 10 10 6 15 15 14 12 13 13 13 16 15 15 17 18 16 13 11 10 9 7 5 5 5 5 7 8 7 6 8 9 10 10 10 10 10 11 10 9 9 9 7 2
2 10 5 10 16 8 15 12 16 16 16 16 18 18 17 15 14 14 11 8 7 6 5 5 7 6 7 6 7 9 9 8 10 9 8 9 9 9 9 9 9 7 5 9
Wind_Direction
207 222 226 233 236 284 314 253 155 154 162 224 151 146 162 167 159 162 165 171 174 174 173 171 178 175 166 171 169 181 186 190 173 198 201 212 248 236 237 258 273 296 159 240
227 222 239 242 240 355 272 294 147 126 137 245 141 159 163 183 171 164 168 173 179 177 170 170 178 177 175 177 174 179 191 195 197 203 217 254 302 246 186 28 345 235 221 335
232 210 234 245 185 236 231 248 145 164 156 252 269 160 161 177 198 165 171 168 184 179 175 171 181 181 185 177 178 181 191 195 192 224 216 227 227 279 40 15 312 289 337 132
227 254 201 220 228 221 227 238 308 166 182 212 221 214 167 173 195 173 177 168 182 176 174 173 179 185 191 182 178 184 187 198 196 205 237 222 217 236 204 192 196 239 243 206
219 238 210 215 217 209 253 23 120 262 280 262 209 245 173 175 187 198 186 179 186 170 174 176 184 186 196 191 183 183 180 189 200 194 221 227 203 249 259 164 199 214 222 200
240 210 211 228 218 246 248 171 268 264 255 237 243 231 154 186 183 198 198 190 185 172 173 170 179 179 195 192 189 178 176 185 194 193 201 233 263 258 310 47 286 295 319 155
223 231 212 216 220 223 224 215 215 221 219 241 233 202 131 140 176 185 192 188 181 178 174 169 170 175 191 198 189 176 174 181 187 202 204 204 223 229 246 209 237 186 280 89
215 215 212 197 222 216 217 232 234 200 251 220 142 194 111 100 108 110 337 193 183 183 183 176 173 172 183 197 188 179 171 177 189 196 204 207 207 211 217 213 238 219 99 240
196 226 195 218 220 213 206 234 261 284 284 268 172 180 134 142 126 139 225 239 209 184 188 186 177 170 175 194 186 179 168 175 187 198 197 198 201 213 211 258 209 251 127 324
245 217 219 194 198 238 234 203 242 250 279 232 248 154 136 127 154 100 46 271 253 202 187 181 183 172 174 181 188 177 168 179 188 197 194 192 191 194 214 234 227 293 357 338
242 255 237 183 196 213 221 235 241 251 241 294 223 64 94 104 105 103 125 268 301 287 193 181 192 169 175 179 186 189 179 176 185 189 190 198 189 190 198 225 188 257 264 264
226 245 252 190 194 223 244 213 229 252 245 284 322 137 114 119 132 130 74 65 338 321 276 232 181 61 109 325 190 193 360 181 169 184 172 202 202 157 143 136 279 259 253 258
204 229 243 250 190 191 230 228 217 236 265 268 254 136 136 122 114 80 61 28 139 286 325 58 76 78 61 250 276 143 189 206 112 87 233 161 227 58 80 40 259 268 276 270
229 216 234 233 230 200 206 225 236 223 220 239 212 153 153 152 133 144 127 107 316 338 283 85 99 116 158 253 68 62 59 52 60 92 42 46 28 6 278 260 328 295 273 270
228 236 226 238 258 224 206 212 235 246 249 228 171 90 111 99 98 97 88 61 357 308 316 6 134 160 197 58 36 41 55 28 15 49 52 79 150 261 310 298 279 275 273 277
206 236 230 244 241 257 242 206 205 228 237 248 269 116 142 131 142 150 133 116 91 333 314 73 78 57 97 102 65 65 58 53 47 23 37 306 257 274 286 296 301 299 294 301
212 223 216 237 243 254 253 243 196 214 213 225 232 131 132 145 136 124 113 100 92 49 50 64 92 79 67 65 58 55 50 36 31 19 1 349 335 328 335 335 326 315 311 315
195 230 214 231 228 244 254 231 240 218 219 201 124 109 102 101 91 87 84 104 95 85 77 73 76 79 76 69 57 50 35 35 7 341 358 357 345 334 329 324 314 314 319 308
187 219 222 231 232 234 248 237 217 237 245 235 120 123 122 115 107 83 80 86 92 88 81 79 78 70 61 55 43 32 35 6 346 13 356 346 341 331 319 313 312 305 303 305
201 189 225 211 245 232 238 215 193 222 240 121 125 134 134 139 162 124 99 98 96 96 98 101 93 87 82 63 37 27 20 359 18 352 341 338 327 319 322 308 303 318 315 312
222 226 201 216 224 239 173 57 170 218 224 144 125 135 136 141 117 123 114 109 108 108 104 98 96 96 82 56 31 20 9 23 359 355 338 327 331 321 308 324 321 317 318 310
195 235 225 215 231 240 163 154 183 136 109 103 110 105 101 114 122 128 121 119 125 122 108 98 93 92 80 51 26 10 23 7 0 336 324 330 320 310 305 303 300 299 307 301
198 213 220 8 254 105 104 117 105 92 86 98 113 115 122 131 133 127 130 124 120 112 89 74 66 74 70 49 21 13 10 359 347 325 323 319 299 293 300 311 308 319 316 304
193 198 223 134 128 119 123 117 124 123 121 123 119 130 139 129 126 129 125 121 106 84 81 73 65 65 56 32 57 23 16 359 345 337 327 308 303 347 325 314 320 336 316 337
164 184 138 101 126 113 119 126 125 111 111 111 118 132 127 122 118 110 101 99 95 94 76 85 73 37 39 24 2 64 21 4 333 325 316 325 344 316 322 335 328 324 346 19
354 170 121 171 148 150 128 121 128 120 120 124 117 111 113 117 126 116 106 99 105 104 81 65 69 34 25 10 14 31 5 346 327 326 332 330 320 325 341 324 332 359 331 324